Time,TemperatureF,DewpointF,PressureIn,WindDirection,WindDirectionDegrees,WindSpeedMPH,WindSpeedGustMPH,Humidity,HourlyPrecipIn,Conditions,Clouds,dailyrainin,SoftwareType,DateUTC
2013-09-24 00:04:00,45.5,41.9,30.11,SSE,162,0.0,0.0,87,0.00,,,0.00,Wunderground v.1.15,2013-09-24 04:04:00,
2013-09-24 00:09:00,45.3,42.0,30.11,SSE,162,0.0,0.0,88,0.00,,,0.00,Wunderground v.1.15,2013-09-24 04:09:00,
2013-09-24 00:14:00,45.3,42.2,30.11,SSE,162,0.0,0.0,89,0.00,,,0.00,Wunderground v.1.15,2013-09-24 04:14:00,
2013-09-24 00:24:00,45.0,42.0,30.11,SSE,162,0.0,0.0,89,0.00,,,0.00,Wunderground v.1.15,2013-09-24 04:24:00,
2013-09-24 00:34:00,44.9,42.1,30.11,SSE,162,0.0,0.0,90,0.00,,,0.00,Wunderground v.1.15,2013-09-24 04:34:00,
2013-09-24 00:44:00,44.6,41.6,30.11,SSE,162,0.0,0.0,89,0.00,,,0.00,Wunderground v.1.15,2013-09-24 04:44:00,
2013-09-24 00:54:00,44.0,41.0,30.11,SSE,162,0.0,0.0,89,0.00,,,0.00,Wunderground v.1.15,2013-09-24 04:54:00,
2013-09-24 00:59:00,44.0,41.3,30.11,SSE,162,0.0,0.0,90,0.00,,,0.00,Wunderground v.1.15,2013-09-24 04:59:00,
2013-09-24 01:09:00,44.4,41.7,30.11,SSE,162,0.0,0.0,90,0.00,,,0.00,Wunderground v.1.15,2013-09-24 05:09:00,
2013-09-24 01:14:00,44.2,41.5,30.11,SSE,162,0.0,0.0,90,0.00,,,0.00,Wunderground v.1.15,2013-09-24 05:14:00,
2013-09-24 01:19:00,44.1,41.4,30.11,SSE,162,0.0,0.0,90,0.00,,,0.00,Wunderground v.1.15,2013-09-24 05:19:00,
2013-09-24 01:29:00,44.0,41.3,30.11,SSE,162,0.0,0.0,90,0.00,,,0.00,Wunderground v.1.15,2013-09-24 05:29:00,
2013-09-24 01:39:00,43.8,41.1,30.11,SSE,162,0.0,0.0,90,0.00,,,0.00,Wunderground v.1.15,2013-09-24 05:39:00,
2013-09-24 01:49:00,43.3,40.6,30.11,SSE,162,0.0,0.0,90,0.00,,,0.00,Wunderground v.1.15,2013-09-24 05:49:00,
2013-09-24 01:59:00,42.8,40.1,30.11,SSE,162,0.0,0.0,90,0.00,,,0.00,Wunderground v.1.15,2013-09-24 05:59:00,
2013-09-24 02:09:00,42.8,40.4,30.11,SSE,162,0.0,0.0,91,0.00,,,0.00,Wunderground v.1.15,2013-09-24 06:09:00,
2013-09-24 02:19:00,43.0,40.6,30.12,SSE,161,0.0,0.0,91,0.00,,,0.00,Wunderground v.1.15,2013-09-24 06:19:00,
2013-09-24 02:24:00,43.2,40.8,30.12,SSE,161,0.0,0.0,91,0.00,,,0.00,Wunderground v.1.15,2013-09-24 06:24:00,
2013-09-24 02:34:00,43.0,40.6,30.11,SSE,161,0.0,0.0,91,0.00,,,0.00,Wunderground v.1.15,2013-09-24 06:34:00,
2013-09-24 02:39:00,42.9,40.5,30.12,SSE,161,0.0,0.0,91,0.00,,,0.00,Wunderground v.1.15,2013-09-24 06:39:00,
2013-09-24 02:49:00,43.0,40.6,30.12,SSE,161,0.0,0.0,91,0.00,,,0.00,Wunderground v.1.15,2013-09-24 06:49:00,
2013-09-24 02:54:00,42.9,40.5,30.12,SSE,161,0.0,0.0,91,0.00,,,0.00,Wunderground v.1.15,2013-09-24 06:54:00,
2013-09-24 02:59:00,42.7,40.3,30.11,SSE,161,0.0,0.0,91,0.00,,,0.00,Wunderground v.1.15,2013-09-24 06:59:00,
2013-09-24 03:09:00,42.7,40.3,30.11,SSE,161,0.0,0.0,91,0.00,,,0.00,Wunderground v.1.15,2013-09-24 07:09:00,
2013-09-24 03:19:00,42.5,40.1,30.11,SSE,161,0.0,0.0,91,0.00,,,0.00,Wunderground v.1.15,2013-09-24 07:19:00,
2013-09-24 03:29:00,42.7,40.3,30.11,SSE,161,0.0,0.0,91,0.00,,,0.00,Wunderground v.1.15,2013-09-24 07:29:00,
2013-09-24 03:34:00,42.7,40.3,30.11,SSE,161,0.0,0.0,91,0.00,,,0.00,Wunderground v.1.15,2013-09-24 07:34:00,
2013-09-24 03:44:00,42.5,40.1,30.11,SSE,161,0.0,0.0,91,0.00,,,0.00,Wunderground v.1.15,2013-09-24 07:44:00,
2013-09-24 03:49:00,42.4,40.0,30.11,SSE,161,0.0,0.0,91,0.00,,,0.00,Wunderground v.1.15,2013-09-24 07:49:00,
2013-09-24 03:59:00,42.5,40.1,30.11,SSE,162,0.0,0.0,91,0.00,,,0.00,Wunderground v.1.15,2013-09-24 07:59:00,
2013-09-24 04:09:00,42.4,40.0,30.11,SSE,162,0.0,0.0,91,0.00,,,0.00,Wunderground v.1.15,2013-09-24 08:09:00,
2013-09-24 04:14:00,42.2,39.8,30.11,SSE,161,0.0,0.0,91,0.00,,,0.00,Wunderground v.1.15,2013-09-24 08:14:00,
2013-09-24 04:24:00,41.9,39.5,30.11,SSE,161,0.0,0.0,91,0.00,,,0.00,Wunderground v.1.15,2013-09-24 08:24:00,
2013-09-24 04:34:00,41.6,39.2,30.11,SSE,161,0.0,0.0,91,0.00,,,0.00,Wunderground v.1.15,2013-09-24 08:34:00,
2013-09-24 04:39:00,41.3,38.9,30.11,SSE,161,0.0,0.0,91,0.00,,,0.00,Wunderground v.1.15,2013-09-24 08:39:00,
2013-09-24 04:49:00,41.0,38.6,30.11,SSE,161,0.0,0.0,91,0.00,,,0.00,Wunderground v.1.15,2013-09-24 08:49:00,
2013-09-24 04:54:00,41.0,38.6,30.11,SSE,161,0.0,0.0,91,0.00,,,0.00,Wunderground v.1.15,2013-09-24 08:54:00,
2013-09-24 04:59:00,41.2,39.1,30.11,SSE,161,0.0,0.0,92,0.00,,,0.00,Wunderground v.1.15,2013-09-24 08:59:00,
2013-09-24 05:09:00,41.3,39.2,30.11,SSE,161,0.0,0.0,92,0.00,,,0.00,Wunderground v.1.15,2013-09-24 09:09:00,
2013-09-24 05:19:00,40.9,38.5,30.10,SSE,161,0.0,0.0,91,0.00,,,0.00,Wunderground v.1.15,2013-09-24 09:19:00,
2013-09-24 05:29:00,40.3,37.9,30.10,SSE,161,0.0,0.0,91,0.00,,,0.00,Wunderground v.1.15,2013-09-24 09:29:00,
2013-09-24 05:34:00,40.0,37.6,30.10,SSE,161,0.0,0.0,91,0.00,,,0.00,Wunderground v.1.15,2013-09-24 09:34:00,
2013-09-24 05:44:00,40.4,38.3,30.11,SSE,162,0.0,2.0,92,0.00,,,0.00,Wunderground v.1.15,2013-09-24 09:44:00,
2013-09-24 05:54:00,41.0,38.9,30.11,SSE,166,0.0,1.0,92,0.00,,,0.00,Wunderground v.1.15,2013-09-24 09:54:00,
2013-09-24 05:59:00,41.2,39.1,30.11,SSE,166,0.0,0.0,92,0.00,,,0.00,Wunderground v.1.15,2013-09-24 09:59:00,
2013-09-24 06:09:00,40.8,38.7,30.11,SSE,166,0.0,0.0,92,0.00,,,0.00,Wunderground v.1.15,2013-09-24 10:09:00,
2013-09-24 06:19:00,40.6,38.5,30.11,SSE,166,0.0,0.0,92,0.00,,,0.00,Wunderground v.1.15,2013-09-24 10:19:00,
2013-09-24 06:29:00,40.2,37.8,30.11,SSE,166,0.0,0.0,91,0.00,,,0.00,Wunderground v.1.15,2013-09-24 10:29:00,
2013-09-24 06:39:00,40.6,38.5,30.11,SSE,166,0.0,0.0,92,0.00,,,0.00,Wunderground v.1.15,2013-09-24 10:39:00,
2013-09-24 06:44:00,40.7,38.6,30.12,SSE,166,0.0,0.0,92,0.00,,,0.00,Wunderground v.1.15,2013-09-24 10:44:00,
2013-09-24 06:54:00,40.9,38.8,30.12,SSE,166,0.0,0.0,92,0.00,,,0.00,Wunderground v.1.15,2013-09-24 10:54:00,
2013-09-24 06:59:00,41.1,39.0,30.12,SSE,166,0.0,0.0,92,0.00,,,0.00,Wunderground v.1.15,2013-09-24 10:59:00,
2013-09-24 07:09:00,40.8,38.7,30.12,SSE,166,0.0,0.0,92,0.00,,,0.00,Wunderground v.1.15,2013-09-24 11:09:00,
2013-09-24 07:19:00,40.5,38.4,30.12,SSE,166,0.0,0.0,92,0.00,,,0.00,Wunderground v.1.15,2013-09-24 11:19:00,
2013-09-24 07:24:00,40.2,38.1,30.13,SSE,166,0.0,0.0,92,0.00,,,0.00,Wunderground v.1.15,2013-09-24 11:24:00,
2013-09-24 07:34:00,40.7,38.6,30.13,SSE,166,0.0,0.0,92,0.00,,,0.00,Wunderground v.1.15,2013-09-24 11:34:00,
2013-09-24 07:44:00,40.6,38.5,30.13,SSE,166,0.0,0.0,92,0.00,,,0.00,Wunderground v.1.15,2013-09-24 11:44:00,
2013-09-24 07:49:00,40.5,38.4,30.13,SSE,166,0.0,0.0,92,0.00,,,0.00,Wunderground v.1.15,2013-09-24 11:49:00,
2013-09-24 07:59:00,40.6,38.5,30.13,SSE,166,0.0,0.0,92,0.00,,,0.00,Wunderground v.1.15,2013-09-24 11:59:00,
2013-09-24 08:14:00,41.4,39.3,30.13,SSE,166,0.0,0.0,92,0.00,,,0.00,Wunderground v.1.15,2013-09-24 12:14:00,
2013-09-24 08:24:00,42.7,40.5,30.13,SSE,166,0.0,0.0,92,0.00,,,0.00,Wunderground v.1.15,2013-09-24 12:24:00,
2013-09-24 08:34:00,44.6,42.4,30.13,SSE,166,0.0,0.0,92,0.00,,,0.00,Wunderground v.1.15,2013-09-24 12:34:00,
2013-09-24 08:39:00,45.7,43.8,30.12,SSE,166,0.0,0.0,93,0.00,,,0.00,Wunderground v.1.15,2013-09-24 12:39:00,
2013-09-24 08:49:00,48.7,46.8,30.12,SSE,166,0.0,0.0,93,0.00,,,0.00,Wunderground v.1.15,2013-09-24 12:49:00,
2013-09-24 08:59:00,51.4,49.4,30.13,SSE,166,0.0,0.0,93,0.00,,,0.00,Wunderground v.1.15,2013-09-24 12:59:00,
2013-09-24 09:09:00,52.0,50.0,30.12,SSE,166,0.0,0.0,93,0.00,,,0.00,Wunderground v.1.15,2013-09-24 13:09:00,
2013-09-24 09:14:00,52.2,50.2,30.12,SSE,166,0.0,0.0,93,0.00,,,0.00,Wunderground v.1.15,2013-09-24 13:14:00,
2013-09-24 09:24:00,52.4,50.4,30.12,SSE,166,0.0,0.0,93,0.00,,,0.00,Wunderground v.1.15,2013-09-24 13:24:00,
2013-09-24 09:29:00,53.0,51.0,30.12,SSE,166,0.0,0.0,93,0.00,,,0.00,Wunderground v.1.15,2013-09-24 13:29:00,
2013-09-24 09:39:00,53.8,51.5,30.12,SSE,165,0.0,1.0,92,0.00,,,0.00,Wunderground v.1.15,2013-09-24 13:39:00,
2013-09-24 09:49:00,54.4,50.0,30.12,SSE,165,1.0,1.0,85,0.00,,,0.00,Wunderground v.1.15,2013-09-24 13:49:00,
2013-09-24 09:54:00,55.2,49.8,30.12,SSE,165,1.0,1.0,82,0.00,,,0.00,Wunderground v.1.15,2013-09-24 13:54:00,
2013-09-24 09:59:00,56.2,49.8,30.12,SSE,165,0.0,0.0,79,0.00,,,0.00,Wunderground v.1.15,2013-09-24 13:59:00,
2013-09-24 10:09:00,56.6,48.0,30.12,South,175,1.0,1.0,73,0.00,,,0.00,Wunderground v.1.15,2013-09-24 14:09:00,
2013-09-24 10:14:00,56.7,48.5,30.12,South,186,1.0,3.0,74,0.00,,,0.00,Wunderground v.1.15,2013-09-24 14:14:00,
2013-09-24 10:24:00,56.3,47.4,30.12,South,173,2.0,3.0,72,0.00,,,0.00,Wunderground v.1.15,2013-09-24 14:24:00,
2013-09-24 10:34:00,57.4,48.4,30.12,SSE,149,2.0,2.0,72,0.00,,,0.00,Wunderground v.1.15,2013-09-24 14:34:00,
2013-09-24 10:44:00,57.8,48.5,30.12,SSE,162,2.0,3.0,71,0.00,,,0.00,Wunderground v.1.15,2013-09-24 14:44:00,
2013-09-24 10:54:00,58.3,47.8,30.12,South,182,2.0,5.0,68,0.00,,,0.00,Wunderground v.1.15,2013-09-24 14:54:00,
2013-09-24 10:59:00,58.1,48.4,30.11,South,186,2.0,2.0,70,0.00,,,0.00,Wunderground v.1.15,2013-09-24 14:59:00,
2013-09-24 11:09:00,59.4,48.8,30.11,SSE,156,3.0,3.0,68,0.00,,,0.00,Wunderground v.1.15,2013-09-24 15:09:00,
2013-09-24 11:14:00,59.3,48.3,30.11,SE,136,5.0,5.0,67,0.00,,,0.00,Wunderground v.1.15,2013-09-24 15:14:00,
2013-09-24 11:24:00,59.8,49.2,30.11,SE,144,4.0,7.0,68,0.00,,,0.00,Wunderground v.1.15,2013-09-24 15:24:00,
2013-09-24 11:34:00,59.9,48.5,30.11,SE,145,5.0,6.0,66,0.00,,,0.00,Wunderground v.1.15,2013-09-24 15:34:00,
2013-09-24 11:44:00,60.0,48.6,30.11,SE,144,5.0,5.0,66,0.00,,,0.00,Wunderground v.1.15,2013-09-24 15:44:00,
2013-09-24 11:49:00,60.0,48.6,30.11,South,171,5.0,5.0,66,0.00,,,0.00,Wunderground v.1.15,2013-09-24 15:49:00,
2013-09-24 11:59:00,60.8,48.5,30.10,East,91,3.0,5.0,64,0.00,,,0.00,Wunderground v.1.15,2013-09-24 15:59:00,
2013-09-24 12:09:00,61.0,47.9,30.10,SE,130,4.0,4.0,62,0.00,,,0.00,Wunderground v.1.15,2013-09-24 16:09:00,
2013-09-24 12:14:00,61.0,48.7,30.10,East,82,4.0,6.0,64,0.00,,,0.00,Wunderground v.1.15,2013-09-24 16:14:00,
2013-09-24 12:19:00,60.8,48.5,30.10,East,96,5.0,6.0,64,0.00,,,0.00,Wunderground v.1.15,2013-09-24 16:19:00,
2013-09-24 12:29:00,60.5,48.7,30.09,ESE,120,4.0,4.0,65,0.00,,,0.00,Wunderground v.1.15,2013-09-24 16:29:00,
2013-09-24 12:34:00,60.7,48.4,30.09,East,98,4.0,5.0,64,0.00,,,0.00,Wunderground v.1.15,2013-09-24 16:34:00,
2013-09-24 12:44:00,60.8,49.4,30.09,East,98,4.0,5.0,66,0.00,,,0.00,Wunderground v.1.15,2013-09-24 16:44:00,
2013-09-24 12:54:00,60.8,49.8,30.08,ESE,117,5.0,6.0,67,0.00,,,0.00,Wunderground v.1.15,2013-09-24 16:54:00,
2013-09-24 13:04:00,60.6,48.4,30.08,East,94,6.0,6.0,64,0.00,,,0.00,Wunderground v.1.15,2013-09-24 17:04:00,
2013-09-24 13:14:00,61.3,49.4,30.07,ESE,112,4.0,5.0,65,0.00,,,0.00,Wunderground v.1.15,2013-09-24 17:14:00,
2013-09-24 13:24:00,61.1,48.8,30.07,East,101,7.0,7.0,64,0.00,,,0.00,Wunderground v.1.15,2013-09-24 17:24:00,
2013-09-24 13:34:00,60.9,49.5,30.07,East,84,6.0,6.0,66,0.00,,,0.00,Wunderground v.1.15,2013-09-24 17:34:00,
2013-09-24 13:39:00,61.5,49.6,30.07,ESE,113,5.0,6.0,65,0.00,,,0.00,Wunderground v.1.15,2013-09-24 17:39:00,
2013-09-24 13:49:00,61.6,49.7,30.07,East,95,4.0,7.0,65,0.00,,,0.00,Wunderground v.1.15,2013-09-24 17:49:00,
2013-09-24 13:59:00,61.3,49.4,30.06,East,90,5.0,5.0,65,0.00,,,0.00,Wunderground v.1.15,2013-09-24 17:59:00,
2013-09-24 14:09:00,61.2,50.6,30.06,East,94,6.0,8.0,68,0.00,,,0.00,Wunderground v.1.15,2013-09-24 18:09:00,
2013-09-24 14:19:00,61.7,50.2,30.05,NE,54,7.0,7.0,66,0.00,,,0.00,Wunderground v.1.15,2013-09-24 18:19:00,
2013-09-24 14:29:00,61.6,50.1,30.05,ENE,74,5.0,9.0,66,0.00,,,0.00,Wunderground v.1.15,2013-09-24 18:29:00,
2013-09-24 14:34:00,61.8,50.7,30.05,East,88,5.0,9.0,67,0.00,,,0.00,Wunderground v.1.15,2013-09-24 18:34:00,
2013-09-24 14:44:00,61.9,50.4,30.04,ENE,78,6.0,10.0,66,0.00,,,0.00,Wunderground v.1.15,2013-09-24 18:44:00,
2013-09-24 14:54:00,61.7,50.6,30.04,ENE,62,6.0,8.0,67,0.00,,,0.00,Wunderground v.1.15,2013-09-24 18:54:00,
2013-09-24 14:59:00,61.8,50.7,30.04,ESE,119,6.0,6.0,67,0.00,,,0.00,Wunderground v.1.15,2013-09-24 18:59:00,
2013-09-24 15:09:00,61.8,51.1,30.04,East,89,7.0,7.0,68,0.00,,,0.00,Wunderground v.1.15,2013-09-24 19:09:00,
2013-09-24 15:14:00,61.8,50.3,30.03,East,79,7.0,7.0,66,0.00,,,0.00,Wunderground v.1.15,2013-09-24 19:14:00,
2013-09-24 15:29:00,62.0,50.9,30.03,East,90,7.0,7.0,67,0.00,,,0.00,Wunderground v.1.15,2013-09-24 19:29:00,
2013-09-24 15:34:00,62.0,50.5,30.03,ENE,71,6.0,8.0,66,0.00,,,0.00,Wunderground v.1.15,2013-09-24 19:34:00,
2013-09-24 15:44:00,61.7,50.6,30.02,NE,49,6.0,7.0,67,0.00,,,0.00,Wunderground v.1.15,2013-09-24 19:44:00,
2013-09-24 15:54:00,61.9,50.4,30.02,ESE,109,7.0,8.0,66,0.00,,,0.00,Wunderground v.1.15,2013-09-24 19:54:00,
2013-09-24 15:59:00,61.6,50.5,30.02,East,91,6.0,7.0,67,0.00,,,0.00,Wunderground v.1.15,2013-09-24 19:59:00,
2013-09-24 16:09:00,61.6,50.1,30.02,East,86,6.0,8.0,66,0.00,,,0.00,Wunderground v.1.15,2013-09-24 20:09:00,
2013-09-24 16:19:00,61.2,50.6,30.01,East,87,7.0,10.0,68,0.00,,,0.00,Wunderground v.1.15,2013-09-24 20:19:00,
2013-09-24 16:29:00,61.3,50.6,30.01,East,88,7.0,7.0,68,0.00,,,0.00,Wunderground v.1.15,2013-09-24 20:29:00,
2013-09-24 16:34:00,61.3,51.0,30.01,ESE,105,6.0,7.0,69,0.00,,,0.00,Wunderground v.1.15,2013-09-24 20:34:00,
2013-09-24 16:39:00,61.6,51.7,30.01,East,84,6.0,7.0,70,0.00,,,0.00,Wunderground v.1.15,2013-09-24 20:39:00,
2013-09-24 16:49:00,61.9,51.2,30.01,ENE,78,6.0,6.0,68,0.00,,,0.00,Wunderground v.1.15,2013-09-24 20:49:00,
2013-09-24 16:59:00,62.0,51.3,30.01,East,88,5.0,6.0,68,0.00,,,0.00,Wunderground v.1.15,2013-09-24 20:59:00,
2013-09-24 17:09:00,61.8,51.9,30.01,SE,124,5.0,5.0,70,0.00,,,0.00,Wunderground v.1.15,2013-09-24 21:09:00,
2013-09-24 17:19:00,62.0,51.3,30.01,ENE,78,4.0,8.0,68,0.00,,,0.00,Wunderground v.1.15,2013-09-24 21:19:00,
2013-09-24 17:29:00,61.7,51.8,30.00,East,84,5.0,5.0,70,0.00,,,0.00,Wunderground v.1.15,2013-09-24 21:29:00,
2013-09-24 17:39:00,61.6,51.7,30.00,East,98,6.0,8.0,70,0.00,,,0.00,Wunderground v.1.15,2013-09-24 21:39:00,
2013-09-24 17:49:00,61.5,52.0,30.00,ESE,108,7.0,7.0,71,0.00,,,0.00,Wunderground v.1.15,2013-09-24 21:49:00,
2013-09-24 17:54:00,61.5,51.6,30.00,East,91,6.0,7.0,70,0.00,,,0.00,Wunderground v.1.15,2013-09-24 21:54:00,
2013-09-24 17:59:00,61.4,51.9,29.99,ENE,76,6.0,6.0,71,0.00,,,0.00,Wunderground v.1.15,2013-09-24 21:59:00,
2013-09-24 18:04:00,61.4,52.3,29.99,ENE,65,7.0,9.0,72,0.00,,,0.00,Wunderground v.1.15,2013-09-24 22:04:00,
2013-09-24 18:14:00,61.4,51.9,29.99,East,86,5.0,6.0,71,0.00,,,0.00,Wunderground v.1.15,2013-09-24 22:14:00,
2013-09-24 18:24:00,61.4,51.1,29.99,East,96,6.0,7.0,69,0.00,,,0.00,Wunderground v.1.15,2013-09-24 22:24:00,
2013-09-24 18:29:00,61.4,50.7,29.99,East,90,6.0,6.0,68,0.00,,,0.00,Wunderground v.1.15,2013-09-24 22:29:00,
2013-09-24 18:39:00,61.4,50.3,29.99,ENE,68,4.0,8.0,67,0.00,,,0.00,Wunderground v.1.15,2013-09-24 22:39:00,
2013-09-24 18:49:00,61.1,51.2,29.98,East,90,4.0,4.0,70,0.00,,,0.00,Wunderground v.1.15,2013-09-24 22:49:00,
2013-09-24 18:59:00,60.9,51.4,29.98,ESE,103,5.0,5.0,71,0.00,,,0.00,Wunderground v.1.15,2013-09-24 22:59:00,
2013-09-24 19:09:00,60.5,51.0,29.99,East,86,4.0,4.0,71,0.00,,,0.00,Wunderground v.1.15,2013-09-24 23:09:00,
2013-09-24 19:14:00,60.1,51.0,29.98,East,86,3.0,4.0,72,0.00,,,0.00,Wunderground v.1.15,2013-09-24 23:14:00,
2013-09-24 19:24:00,59.2,50.9,29.98,ENE,74,2.0,2.0,74,0.00,,,0.00,Wunderground v.1.15,2013-09-24 23:24:00,
2013-09-24 19:34:00,58.0,50.8,29.98,ENE,66,3.0,4.0,77,0.00,,,0.00,Wunderground v.1.15,2013-09-24 23:34:00,
2013-09-24 19:44:00,57.4,50.9,29.98,ENE,63,3.0,3.0,79,0.00,,,0.00,Wunderground v.1.15,2013-09-24 23:44:00,
2013-09-24 19:54:00,56.8,50.7,29.98,ENE,63,2.0,2.0,80,0.00,,,0.00,Wunderground v.1.15,2013-09-24 23:54:00,
2013-09-24 19:59:00,56.5,50.4,29.98,ENE,63,1.0,1.0,80,0.00,,,0.00,Wunderground v.1.15,2013-09-24 23:59:00,
2013-09-24 20:04:00,56.1,50.3,29.98,ENE,62,0.0,1.0,81,0.00,,,0.00,Wunderground v.1.15,2013-09-25 00:04:00,
2013-09-24 20:14:00,55.7,50.3,29.98,ENE,63,0.0,0.0,82,0.00,,,0.00,Wunderground v.1.15,2013-09-25 00:14:00,
2013-09-24 20:19:00,55.4,50.3,29.98,ENE,63,0.0,0.0,83,0.00,,,0.00,Wunderground v.1.15,2013-09-25 00:19:00,
2013-09-24 20:24:00,55.2,50.1,29.98,ENE,63,0.0,0.0,83,0.00,,,0.00,Wunderground v.1.15,2013-09-25 00:24:00,
2013-09-24 20:34:00,54.6,49.5,29.98,ENE,63,0.0,0.0,83,0.00,,,0.00,Wunderground v.1.15,2013-09-25 00:34:00,
2013-09-24 20:39:00,54.2,49.1,29.98,ENE,62,0.0,1.0,83,0.00,,,0.00,Wunderground v.1.15,2013-09-25 00:39:00,
2013-09-24 20:49:00,53.7,49.3,29.98,ENE,63,0.0,0.0,85,0.00,,,0.00,Wunderground v.1.15,2013-09-25 00:49:00,
2013-09-24 20:59:00,54.1,50.3,29.98,ENE,62,0.0,0.0,87,0.00,,,0.00,Wunderground v.1.15,2013-09-25 00:59:00,
2013-09-24 21:09:00,54.1,50.0,29.98,ENE,63,0.0,0.0,86,0.00,,,0.00,Wunderground v.1.15,2013-09-25 01:09:00,
2013-09-24 21:19:00,54.1,50.0,29.98,ENE,63,0.0,0.0,86,0.00,,,0.00,Wunderground v.1.15,2013-09-25 01:19:00,
2013-09-24 21:24:00,54.1,49.7,29.98,ENE,63,0.0,0.0,85,0.00,,,0.00,Wunderground v.1.15,2013-09-25 01:24:00,
2013-09-24 21:34:00,52.3,47.3,29.98,ENE,63,0.0,0.0,83,0.00,,,0.00,Wunderground v.1.15,2013-09-25 01:34:00,
2013-09-24 21:39:00,51.2,46.5,29.98,ENE,63,0.0,0.0,84,0.00,,,0.00,Wunderground v.1.15,2013-09-25 01:39:00,
2013-09-24 21:49:00,50.1,45.5,29.97,ENE,63,0.0,0.0,84,0.00,,,0.00,Wunderground v.1.15,2013-09-25 01:49:00,
2013-09-24 22:00:00,49.4,45.4,29.97,ENE,62,0.0,0.0,86,0.00,,,0.00,Wunderground v.1.15,2013-09-25 02:00:00,
2013-09-24 22:09:00,49.4,46.0,29.97,ENE,62,0.0,0.0,88,0.00,,,0.00,Wunderground v.1.15,2013-09-25 02:09:00,
2013-09-24 22:14:00,49.4,46.0,29.97,ENE,62,0.0,0.0,88,0.00,,,0.00,Wunderground v.1.15,2013-09-25 02:14:00,
2013-09-24 22:24:00,49.2,45.8,29.97,ENE,62,0.0,0.0,88,0.00,,,0.00,Wunderground v.1.15,2013-09-25 02:24:00,
2013-09-24 22:34:00,48.3,44.9,29.98,ENE,63,0.0,0.0,88,0.00,,,0.00,Wunderground v.1.15,2013-09-25 02:34:00,
2013-09-24 22:44:00,47.9,44.8,29.98,ENE,63,0.0,0.0,89,0.00,,,0.00,Wunderground v.1.15,2013-09-25 02:44:00,
2013-09-24 22:49:00,48.0,44.9,29.98,ENE,63,0.0,0.0,89,0.00,,,0.00,Wunderground v.1.15,2013-09-25 02:49:00,
2013-09-24 22:59:00,47.9,45.1,29.98,ENE,63,0.0,0.0,90,0.00,,,0.00,Wunderground v.1.15,2013-09-25 02:59:00,
2013-09-24 23:09:00,47.4,44.3,29.98,ENE,63,0.0,0.0,89,0.00,,,0.00,Wunderground v.1.15,2013-09-25 03:09:00,
2013-09-24 23:19:00,47.3,44.5,29.98,ENE,63,0.0,0.0,90,0.00,,,0.00,Wunderground v.1.15,2013-09-25 03:19:00,
2013-09-24 23:24:00,47.2,44.4,29.98,ENE,63,0.0,0.0,90,0.00,,,0.00,Wunderground v.1.15,2013-09-25 03:24:00,
2013-09-24 23:34:00,47.3,44.5,29.98,ENE,63,0.0,0.0,90,0.00,,,0.00,Wunderground v.1.15,2013-09-25 03:34:00,
2013-09-24 23:44:00,47.5,45.0,29.98,ENE,63,0.0,0.0,91,0.00,,,0.00,Wunderground v.1.15,2013-09-25 03:44:00,
2013-09-24 23:49:00,47.9,45.4,29.98,ENE,63,0.0,0.0,91,0.00,,,0.00,Wunderground v.1.15,2013-09-25 03:49:00,
2013-09-24 23:54:00,47.6,44.8,29.98,ENE,63,0.0,0.0,90,0.00,,,0.00,Wunderground v.1.15,2013-09-25 03:54:00,